[TLELIST] Archives

 

[TLELIST] Current TLEs

December 15th 2023 PST

HST 1 20580U 90037B 23348.74338552 .00003339 00000-0 16337-3 0 9992 2 20580 28.4670 145.0097 0002659 166.5102 320.4680 15.15176045648852 ISS (ZARYA) 1 25544U 98067A 23349.38384836 .00022434 00000-0 39396-3 0 9992 2 25544 51.6414 151.0242 0002072 34.3439 48.5014 15.50428682429890 CXO 1 25867U 99040B 23350.40701881 .00000633 00000-0 00000-0 0 9994 2 25867 37.9402 173.6644 9017972 281.3330 0.1016 0.37810014 13861 ...Continue Reading

[TLELIST] Current TLEs

December 14th 2023 PST

HST 1 20580U 90037B 23347.88597087 .00002975 00000-0 14447-3 0 9991 2 20580 28.4669 150.7324 0002679 157.0353 323.7499 15.15169963648722 ISS (ZARYA) 1 25544U 98067A 23348.35012875 .00012884 00000-0 23017-3 0 9990 2 25544 51.6390 156.1528 0001952 31.7296 37.6397 15.50391551429734 CXO 1 25867U 99040B 23350.40701881 .00000633 00000-0 00000-0 0 9994 2 25867 37.9402 173.6644 9017972 281.3330 0.1016 0.37810014 13861 ...Continue Reading

[TLELIST] Current TLEs

December 13th 2023 PST

HST 1 20580U 90037B 23346.89747539 .00003316 00000-0 16219-3 0 9999 2 20580 28.4669 157.3300 0002649 145.9536 332.2393 15.15165747648572 ISS (ZARYA) 1 25544U 98067A 23347.50845237 .00010427 00000-0 18800-3 0 9997 2 25544 51.6399 160.3272 0001810 32.8388 15.7236 15.50368084429603 CXO 1 25867U 99040B 23347.76477827 .00000639 00000-0 00000-0 0 9995 2 25867 37.9063 173.9791 9019630 281.0901 0.2951 0.37814189 13859 ...Continue Reading

[TLELIST] Current TLEs

December 12th 2023 PST

HST 1 20580U 90037B 23345.90896965 .00002753 00000-0 13302-3 0 9992 2 20580 28.4669 163.9271 0002675 135.9015 339.6631 15.15158745648680 ISS (ZARYA) 1 25544U 98067A 23346.48488243 .00009629 00000-0 17435-3 0 9998 2 25544 51.6403 165.3999 0001556 25.8245 66.1371 15.50347832429441 CXO 1 25867U 99040B 23347.76477827 .00000639 00000-0 00000-0 0 9995 2 25867 37.9063 173.9791 9019630 281.0901 0.2951 0.37814189 13859 ...Continue Reading

[TLELIST] Current TLEs

December 11th 2023 PST

HST 1 20580U 90037B 23344.78928087 .00003133 00000-0 15278-3 0 9995 2 20580 28.4669 171.3996 0002723 124.5264 351.4574 15.15153596648251 ISS (ZARYA) 1 25544U 98067A 23345.00370002 .00009797 00000-0 17741-3 0 9994 2 25544 51.6402 172.7364 0001393 16.7918 82.9368 15.50320011429210 CXO 1 25867U 99040B 23347.76477827 .00000639 00000-0 00000+0 0 9994 2 25867 37.9063 173.9791 9019630 281.0901 0.2951 0.37814189 25010 ...Continue Reading

[TLELIST] Current TLEs

December 10th 2023 PST

HST 1 20580U 90037B 23343.93832410 .00003032 00000-0 14753-3 0 9990 2 20580 28.4670 177.0787 0002752 115.8249 29.3311 15.15148344648123 ISS (ZARYA) 1 25544U 98067A 23344.41821535 .00023771 00000-0 41846-3 0 9991 2 25544 51.6400 175.6413 0001536 28.3289 41.5814 15.50322923429125 CXO 1 25867U 99040B 23345.12228794 .00000620 00000-0 00000-0 0 9990 2 25867 37.8845 174.2583 9021415 280.8721 0.4605 0.37814577 13848 ...Continue Reading

[TLELIST] Current TLEs

December 9th 2023 PST

HST 1 20580U 90037B 23342.94974098 .00003442 00000-0 16885-3 0 9992 2 20580 28.4671 183.6761 0002790 106.0720 36.0897 15.15143436648241 ISS (ZARYA) 1 25544U 98067A 23343.07755144 .00026603 00000-0 46764-3 0 9995 2 25544 51.6400 182.2887 0001365 15.2823 127.3497 15.50296263428916 CXO 1 25867U 99040B 23345.12228794 .00000620 00000-0 00000-0 0 9990 2 25867 37.8845 174.2583 9021415 280.8721 0.4605 0.37814577 13848 ...Continue Reading

[TLELIST] Current TLEs

December 8th 2023 PST

HST 1 20580U 90037B 23341.82140612 .00003791 00000-0 18702-3 0 9992 2 20580 28.4672 191.2055 0002805 96.1090 359.2853 15.15136278648067 ISS (ZARYA) 1 25544U 98067A 23342.30734084 .00012049 00000-0 21670-3 0 9998 2 25544 51.6394 186.1058 0001294 7.8659 153.3851 15.50269878428797 CXO 1 25867U 99040B 23345.11958753 .00000620 00000-0 00000+0 0 9993 2 25867 37.8844 174.2582 9021418 280.8722 0.0927 0.37814394 25001 ...Continue Reading

[TLELIST] Current TLEs

December 7th 2023 PST

HST 1 20580U 90037B 23340.90266007 .00004391 00000-0 21825-3 0 9994 2 20580 28.4673 197.3364 0002807 87.5477 26.5811 15.15130046647663 ISS (ZARYA) 1 25544U 98067A 23341.21222630 .00013946 00000-0 24974-3 0 9993 2 25544 51.6410 191.5311 0001459 12.9146 152.5505 15.50245044428627 CXO 1 25867U 99040B 23342.47494569 .00000616 00000-0 00000-0 0 9995 2 25867 37.8696 174.5342 9024826 280.6536 359.9993 0.37816324 13832 ...Continue Reading

[TLELIST] Current TLEs

December 6th 2023 PST

HST 1 20580U 90037B 23340.04729344 .00005011 00000-0 25049-3 0 9999 2 20580 28.4675 203.0446 0002803 78.4367 40.8361 15.15123365647793 ISS (ZARYA) 1 25544U 98067A 23340.48651887 .00014051 00000-0 25175-3 0 9993 2 25544 51.6416 195.1287 0001458 11.2264 61.5007 15.50224296428517 CXO 1 25867U 99040B 23342.47494569 .00000616 00000-0 00000-0 0 9995 2 25867 37.8696 174.5342 9024826 280.6536 359.9993 0.37816324 13832 ...Continue Reading
  • This mailing list is a public mailing list - anyone may join or leave, at any time.
  • This mailing list is announce-only.

International Space Station (ISS) / Hubble Space Telescope (HST) / Chandra X-Ray Observatory Orbital Data via EMAIL

Privacy Policy:

Private list